| time (UTC) | temp F | wind direction | speed knots | gust knots | rain 1hr in | rain 24hr in | rain mn in | humidity % | barometer mb |
| 20260906192100 | 100 | 106 | 0.9 | 4.3 | 0.00 | 0.00 | 0.00 | 36 | 1010.0 |
| 20260906192003 | 100 | 177 | 1.7 | 4.3 | 0.00 | 0.00 | 0.00 | 36 | 1010.0 |
| 20260906191544 | 100 | 216 | 0.0 | 3.5 | 0.00 | 0.00 | 0.00 | 36 | 1009.9 |
| 20260906191102 | 99 | 215 | 0.0 | 4.3 | 0.00 | 0.00 | 0.00 | 37 | 1010.1 |
| 20260906191002 | 99 | 216 | 0.0 | 4.3 | 0.00 | 0.00 | 0.00 | 36 | 1010.1 |
| 20260906190525 | 100 | 216 | 0.0 | 4.3 | 0.00 | 0.00 | 0.00 | 37 | 1010.1 |
| 20260906190113 | 100 | 222 | 0.0 | 5.2 | 0.00 | 0.00 | 0.00 | 38 | 1010.2 |
| 20260906185520 | 100 | 224 | 0.0 | 5.2 | 0.00 | 0.00 | 0.00 | 37 | 1010.3 |
| 20260906185040 | 101 | 165 | 2.6 | 6.1 | 0.00 | 0.00 | 0.00 | 37 | 1010.3 |
| 20260906184518 | 101 | 158 | 2.6 | 7.0 | 0.00 | 0.00 | 0.00 | 36 | 1010.4 |
| 20260906184039 | 101 | 142 | 1.7 | 7.0 | 0.00 | 0.00 | 0.00 | 36 | 1010.4 |
| 20260906183516 | 101 | 143 | 0.9 | 5.2 | 0.00 | 0.00 | 0.00 | 37 | 1010.5 |
| 20260906183044 | 101 | 54 | 0.9 | 7.0 | 0.00 | 0.00 | 0.00 | 37 | 1010.6 |
| 20260906182510 | 100 | 46 | 1.7 | 7.0 | 0.00 | 0.00 | 0.00 | 37 | 1010.6 |
| 20260906182030 | 100 | 69 | 1.7 | 6.1 | 0.00 | 0.00 | 0.00 | 38 | 1010.7 |
| 20260906181545 | 99 | 49 | 0.0 | 4.3 | 0.00 | 0.00 | 0.00 | 39 | 1010.8 |
| 20260906181022 | 99 | 247 | 0.0 | 7.0 | 0.00 | 0.00 | 0.00 | 40 | 1010.9 |
| 20260906180544 | 99 | 247 | 3.5 | 7.0 | 0.00 | 0.00 | 0.00 | 40 | 1011.0 |
| 20260906180011 | 99 | 249 | 1.7 | 4.3 | 0.00 | 0.00 | 0.00 | 40 | 1011.2 |
| 20260906175544 | 99 | 15 | 0.9 | 3.5 | 0.00 | 0.00 | 0.00 | 40 | 1011.3 |
| 20260906175100 | 99 | 15 | 0.9 | 3.5 | 0.00 | 0.00 | 0.00 | 41 | 1011.3 |
| 20260906174524 | 98 | 29 | 0.9 | 3.5 | 0.00 | 0.00 | 0.00 | 40 | 1011.4 |
| 20260906174055 | 98 | 56 | 0.0 | 5.2 | 0.00 | 0.00 | 0.00 | 40 | 1011.5 |
| 20260906173518 | 98 | 57 | 0.9 | 5.2 | 0.00 | 0.00 | 0.00 | 40 | 1011.7 |
| 20260906173053 | 98 | 37 | 1.7 | 5.2 | 0.00 | 0.00 | 0.00 | 40 | 1011.8 |
| 20260906172513 | 97 | 44 | 2.6 | 7.0 | 0.00 | 0.00 | 0.00 | 41 | 1011.9 |
| 20260906172036 | 97 | 266 | 0.9 | 7.0 | 0.00 | 0.00 | 0.00 | 41 | 1012.0 |
| 20260906171517 | 97 | 254 | 0.9 | 5.2 | 0.00 | 0.00 | 0.00 | 41 | 1012.0 |
| 20260906171035 | 97 | 158 | 1.7 | 5.2 | 0.00 | 0.00 | 0.00 | 42 | 1012.1 |
| 20260906170552 | 96 | 169 | 0.9 | 5.2 | 0.00 | 0.00 | 0.00 | 43 | 1012.2 |
| 20260906170035 | 96 | 206 | 0.9 | 6.1 | 0.00 | 0.00 | 0.00 | 43 | 1012.2 |
| 20260906165549 | 96 | 210 | 4.3 | 6.1 | 0.00 | 0.00 | 0.00 | 44 | 1012.3 |
| 20260906165013 | 95 | 202 | 0.0 | 4.3 | 0.00 | 0.00 | 0.00 | 45 | 1012.3 |
| 20260906164549 | 95 | 220 | 0.0 | 5.2 | 0.00 | 0.00 | 0.00 | 46 | 1012.3 |
| 20260906164012 | 95 | 220 | 3.5 | 6.1 | 0.00 | 0.00 | 0.00 | 46 | 1012.4 |
| 20260906163529 | 94 | 241 | 3.5 | 6.1 | 0.00 | 0.00 | 0.00 | 46 | 1012.4 |
| 20260906163010 | 94 | 253 | 1.7 | 4.3 | 0.00 | 0.00 | 0.00 | 47 | 1012.4 |
| 20260906162530 | 94 | 312 | 0.9 | 5.2 | 0.00 | 0.00 | 0.00 | 49 | 1012.4 |
| 20260906162011 | 93 | 314 | 1.7 | 6.1 | 0.00 | 0.00 | 0.00 | 49 | 1012.4 |
| 20260906161531 | 93 | 243 | 3.5 | 6.1 | 0.00 | 0.00 | 0.00 | 49 | 1012.4 |
| 20260906161048 | 93 | 245 | 1.7 | 6.1 | 0.00 | 0.00 | 0.00 | 50 | 1012.5 |
| 20260906160524 | 93 | 240 | 1.7 | 5.2 | 0.00 | 0.00 | 0.00 | 51 | 1012.5 |
| 20260906155510 | 92 | 289 | 0.0 | 4.3 | 0.00 | 0.00 | 0.00 | 52 | 1012.6 |
| 20260906155042 | 92 | 269 | 1.7 | 4.3 | 0.00 | 0.00 | 0.00 | 53 | 1012.6 |
| 20260906154602 | 91 | 312 | 0.9 | 4.3 | 0.00 | 0.00 | 0.00 | 53 | 1012.5 |
| 20260906154508 | 91 | 313 | 0.9 | 4.3 | 0.00 | 0.00 | 0.00 | 53 | 1012.5 |
| 20260906154039 | 91 | 224 | 0.0 | 4.3 | 0.00 | 0.00 | 0.00 | 56 | 1012.5 |
| 20260906153556 | 90 | 224 | 0.0 | 4.3 | 0.00 | 0.00 | 0.00 | 54 | 1012.5 |
| 20260906153027 | 90 | 224 | 1.7 | 5.2 | 0.00 | 0.00 | 0.00 | 56 | 1012.4 |
| 20260906152557 | 90 | 224 | 1.7 | 5.2 | 0.00 | 0.00 | 0.00 | 56 | 1012.5 |
| 20260906152501 | 90 | 220 | 0.9 | 5.2 | 0.00 | 0.00 | 0.00 | 57 | 1012.4 |
| 20260906152022 | 89 | 213 | 0.9 | 5.2 | 0.00 | 0.00 | 0.00 | 57 | 1012.4 |
| 20260906151554 | 89 | 204 | 1.7 | 5.2 | 0.00 | 0.00 | 0.00 | 58 | 1012.4 |
| 20260906151013 | 89 | 200 | 0.9 | 4.3 | 0.00 | 0.00 | 0.00 | 57 | 1012.4 |
| 20260906150532 | 88 | 192 | 0.9 | 4.3 | 0.00 | 0.00 | 0.00 | 57 | 1012.4 |
| 20260906150008 | 88 | 183 | 1.7 | 4.3 | 0.00 | 0.00 | 0.00 | 59 | 1012.4 |
| 20260906145530 | 88 | 177 | 0.9 | 4.3 | 0.00 | 0.00 | 0.00 | 60 | 1012.5 |
| 20260906145050 | 88 | 178 | 0.9 | 4.3 | 0.00 | 0.00 | 0.00 | 60 | 1012.5 |
| 20260906144533 | 87 | 177 | 0.9 | 4.3 | 0.00 | 0.00 | 0.00 | 61 | 1012.5 |
| 20260906144050 | 87 | 175 | 0.0 | 4.3 | 0.00 | 0.00 | 0.00 | 61 | 1012.4 |
| 20260906143532 | 86 | 175 | 0.9 | 4.3 | 0.00 | 0.00 | 0.00 | 62 | 1012.4 |
| 20260906143100 | 86 | 174 | 0.0 | 3.5 | 0.00 | 0.00 | 0.00 | 63 | 1012.4 |
| 20260906143003 | 86 | 174 | 0.0 | 3.5 | 0.00 | 0.00 | 0.00 | 63 | 1012.3 |
| 20260906142543 | 85 | 174 | 1.7 | 4.3 | 0.00 | 0.00 | 0.00 | 63 | 1012.4 |
| 20260906142023 | 85 | 174 | 0.9 | 4.3 | 0.00 | 0.00 | 0.00 | 64 | 1012.3 |
| 20260906141554 | 85 | 174 | 2.6 | 4.3 | 0.00 | 0.00 | 0.00 | 65 | 1012.3 |
| 20260906141036 | 84 | 174 | 0.9 | 2.6 | 0.00 | 0.00 | 0.00 | 67 | 1012.3 |
| 20260906140554 | 83 | 174 | 0.9 | 4.3 | 0.00 | 0.00 | 0.00 | 68 | 1012.3 |
| 20260906140027 | 83 | 174 | 1.7 | 5.2 | 0.00 | 0.00 | 0.00 | 68 | 1012.3 |
| 20260906135512 | 83 | 174 | 2.6 | 5.2 | 0.00 | 0.00 | 0.00 | 69 | 1012.2 |
| 20260906135049 | 82 | 173 | 2.6 | 5.2 | 0.00 | 0.00 | 0.00 | 70 | 1012.2 |
| 20260906134538 | 82 | 172 | 2.6 | 4.3 | 0.00 | 0.00 | 0.00 | 70 | 1012.2 |
| 20260906134009 | 82 | 172 | 0.9 | 3.5 | 0.00 | 0.00 | 0.00 | 72 | 1012.2 |
| 20260906133543 | 81 | 172 | 0.9 | 3.5 | 0.00 | 0.00 | 0.00 | 73 | 1012.2 |
| 20260906133026 | 80 | 172 | 0.0 | 4.3 | 0.00 | 0.00 | 0.00 | 74 | 1012.1 |
| 20260906132540 | 80 | 172 | 0.9 | 4.3 | 0.00 | 0.00 | 0.00 | 75 | 1012.1 |
| 20260906132058 | 79 | 171 | 0.9 | 4.3 | 0.00 | 0.00 | 0.00 | 76 | 1012.1 |
| 20260906131538 | 78 | 171 | 0.0 | 2.6 | 0.00 | 0.00 | 0.00 | 77 | 1012.1 |
| 20260906131022 | 78 | 171 | 0.9 | 2.6 | 0.00 | 0.00 | 0.00 | 78 | 1012.1 |
| 20260906130555 | 78 | 171 | 1.7 | 3.5 | 0.00 | 0.00 | 0.00 | 78 | 1012.1 |
| 20260906130039 | 78 | 170 | 0.0 | 1.7 | 0.00 | 0.00 | 0.00 | 78 | 1012.1 |
| 20260906125515 | 77 | 170 | 0.0 | 3.5 | 0.00 | 0.00 | 0.00 | 78 | 1012.0 |
| 20260906125053 | 77 | 170 | 0.9 | 4.3 | 0.00 | 0.00 | 0.00 | 79 | 1011.9 |
| 20260906124529 | 77 | 170 | 0.9 | 4.3 | 0.00 | 0.00 | 0.00 | 79 | 1011.9 |
| 20260906124006 | 77 | 189 | 0.9 | 3.5 | 0.00 | 0.00 | 0.00 | 79 | 1011.8 |
| 20260906123547 | 77 | 189 | 0.0 | 3.5 | 0.00 | 0.00 | 0.00 | 79 | 1011.7 |
| 20260906123029 | 77 | 189 | 0.9 | 3.5 | 0.00 | 0.00 | 0.00 | 79 | 1011.6 |
| 20260906122555 | 76 | 191 | 0.0 | 0.9 | 0.00 | 0.00 | 0.00 | 80 | 1011.6 |
| 20260906122042 | 77 | 191 | 0.0 | 0.9 | 0.00 | 0.00 | 0.00 | 80 | 1011.6 |
| 20260906121522 | 77 | 191 | 0.0 | 0.0 | 0.00 | 0.00 | 0.00 | 80 | 1011.5 |
| 20260906121058 | 77 | 191 | 0.0 | 0.0 | 0.00 | 0.00 | 0.00 | 79 | 1011.4 |
| 20260906120533 | 77 | 191 | 0.0 | 0.9 | 0.00 | 0.00 | 0.00 | 79 | 1011.4 |
| 20260906120013 | 77 | 191 | 0.0 | 0.9 | 0.00 | 0.00 | 0.00 | 80 | 1011.3 |
| 20260906115538 | 77 | 191 | 0.0 | 0.0 | 0.00 | 0.00 | 0.00 | 79 | 1011.3 |
| 20260906115019 | 77 | 191 | 0.0 | 0.0 | 0.00 | 0.00 | 0.00 | 79 | 1011.3 |
| 20260906114607 | 77 | 191 | 0.0 | 0.0 | 0.00 | 0.00 | 0.00 | 79 | 1011.3 |
| 20260906114033 | 77 | 191 | 0.0 | 0.9 | 0.00 | 0.00 | 0.00 | 79 | 1011.2 |
| 20260906113509 | 77 | 191 | 0.0 | 0.9 | 0.00 | 0.00 | 0.00 | 79 | 1011.2 |
| 20260906113032 | 77 | 191 | 0.0 | 0.0 | 0.00 | 0.00 | 0.00 | 79 | 1011.3 |
| 20260906112515 | 77 | 191 | 0.0 | 0.0 | 0.00 | 0.00 | 0.00 | 80 | 1011.2 |
| 20260906112051 | 77 | 191 | 0.0 | 0.0 | 0.00 | 0.00 | 0.00 | 80 | 1011.2 |
| 20260906111534 | 77 | 191 | 0.0 | 0.9 | 0.00 | 0.00 | 0.00 | 79 | 1011.1 |
| 20260906111008 | 77 | 191 | 0.0 | 0.9 | 0.00 | 0.00 | 0.00 | 79 | 1011.1 |
| 20260906110546 | 78 | 191 | 0.0 | 0.9 | 0.00 | 0.00 | 0.00 | 79 | 1011.0 |
| 20260906110009 | 78 | 191 | 0.0 | 0.9 | 0.00 | 0.00 | 0.00 | 79 | 1010.9 |
| 20260906105533 | 78 | 191 | 0.0 | 0.9 | 0.00 | 0.00 | 0.00 | 78 | 1010.9 |
| 20260906105016 | 77 | 191 | 0.0 | 0.9 | 0.00 | 0.00 | 0.00 | 77 | 1010.9 |
| 20260906104616 | 77 | 191 | 0.0 | 0.0 | 0.00 | 0.00 | 0.00 | 76 | 1010.9 |
| 20260906104037 | 77 | 191 | 0.0 | 0.0 | 0.00 | 0.00 | 0.00 | 77 | 1010.9 |
| 20260906103517 | 78 | 191 | 0.0 | 0.0 | 0.00 | 0.00 | 0.00 | 77 | 1010.9 |
| 20260906103052 | 78 | 191 | 0.0 | 0.9 | 0.00 | 0.00 | 0.00 | 77 | 1010.9 |
| 20260906102511 | 78 | 191 | 0.0 | 0.9 | 0.00 | 0.00 | 0.00 | 77 | 1010.9 |
| 20260906102035 | 78 | 191 | 0.0 | 0.0 | 0.00 | 0.00 | 0.00 | 77 | 1011.0 |
| 20260906101526 | 78 | 191 | 0.0 | 0.0 | 0.00 | 0.00 | 0.00 | 78 | 1010.9 |
| 20260906101051 | 78 | 191 | 0.0 | 0.9 | 0.00 | 0.00 | 0.00 | 77 | 1010.9 |
| 20260906100513 | 78 | 191 | 0.0 | 0.9 | 0.00 | 0.00 | 0.00 | 77 | 1011.0 |
| 20260906100040 | 78 | 191 | 0.0 | 0.9 | 0.00 | 0.00 | 0.00 | 77 | 1011.0 |
| 20260906095518 | 78 | 191 | 0.0 | 0.9 | 0.00 | 0.00 | 0.00 | 77 | 1011.0 |
| 20260906095054 | 78 | 191 | 0.0 | 0.9 | 0.00 | 0.00 | 0.00 | 77 | 1011.0 |
| 20260906094538 | 78 | 191 | 0.0 | 0.9 | 0.00 | 0.00 | 0.00 | 77 | 1011.0 |
| 20260906094011 | 78 | 191 | 0.0 | 0.9 | 0.00 | 0.00 | 0.00 | 77 | 1010.8 |
| 20260906093546 | 78 | 191 | 0.0 | 0.0 | 0.00 | 0.00 | 0.00 | 76 | 1010.9 |
| 20260906093030 | 79 | 191 | 0.0 | 0.9 | 0.00 | 0.00 | 0.00 | 76 | 1010.8 |
| 20260906092508 | 79 | 191 | 0.0 | 0.0 | 0.00 | 0.00 | 0.00 | 75 | 1010.8 |
| 20260906092044 | 79 | 191 | 0.0 | 0.0 | 0.00 | 0.00 | 0.00 | 75 | 1010.7 |
| 20260906091519 | 79 | 191 | 0.0 | 0.0 | 0.00 | 0.00 | 0.00 | 76 | 1010.7 |
| 20260906091041 | 79 | 191 | 0.0 | 0.0 | 0.00 | 0.00 | 0.00 | 77 | 1010.8 |
| 20260906090521 | 79 | 191 | 0.0 | 0.0 | 0.00 | 0.00 | 0.00 | 76 | 1010.7 |
| 20260906090057 | 79 | 191 | 0.0 | 0.9 | 0.00 | 0.00 | 0.00 | 76 | 1010.6 |
| 20260906090001 | 79 | 191 | 0.0 | 0.9 | 0.00 | 0.00 | 0.00 | 76 | 1010.6 |
| 20260906085539 | 79 | 191 | 0.0 | 0.9 | 0.00 | 0.00 | 0.00 | 76 | 1010.5 |
| 20260906085015 | 80 | 191 | 0.0 | 0.9 | 0.00 | 0.00 | 0.00 | 76 | 1010.4 |
| 20260906084549 | 80 | 191 | 0.0 | 0.9 | 0.00 | 0.00 | 0.00 | 75 | 1010.4 |
| 20260906084033 | 80 | 191 | 0.0 | 0.0 | 0.00 | 0.00 | 0.00 | 74 | 1010.4 |
| 20260906083513 | 80 | 191 | 0.0 | 1.7 | 0.00 | 0.00 | 0.00 | 75 | 1010.2 |
| 20260906083053 | 80 | 191 | 0.0 | 1.7 | 0.00 | 0.00 | 0.00 | 75 | 1010.3 |
| 20260906082534 | 80 | 191 | 0.0 | 0.9 | 0.00 | 0.00 | 0.00 | 75 | 1010.2 |
| 20260906082013 | 80 | 191 | 0.0 | 0.9 | 0.00 | 0.00 | 0.00 | 74 | 1010.2 |
| 20260906081534 | 80 | 191 | 0.0 | 1.7 | 0.00 | 0.00 | 0.00 | 74 | 1010.2 |
| 20260906081051 | 80 | 191 | 0.0 | 1.7 | 0.00 | 0.00 | 0.00 | 76 | 1010.2 |
| 20260906080530 | 80 | 191 | 0.0 | 0.9 | 0.00 | 0.00 | 0.00 | 74 | 1010.2 |
| 20260906080015 | 80 | 191 | 0.0 | 1.7 | 0.00 | 0.00 | 0.00 | 74 | 1010.2 |
| 20260906075539 | 80 | 191 | 0.0 | 1.7 | 0.00 | 0.00 | 0.00 | 74 | 1010.1 |
| 20260906075015 | 81 | 191 | 0.9 | 1.7 | 0.00 | 0.00 | 0.00 | 74 | 1010.1 |
| 20260906074549 | 81 | 191 | 0.0 | 0.0 | 0.00 | 0.00 | 0.00 | 75 | 1010.1 |
| 20260906074030 | 81 | 191 | 0.0 | 0.0 | 0.00 | 0.00 | 0.00 | 74 | 1010.2 |
| 20260906073559 | 81 | 191 | 0.0 | 0.0 | 0.00 | 0.00 | 0.00 | 74 | 1010.1 |
| 20260906073503 | 81 | 191 | 0.0 | 0.0 | 0.00 | 0.00 | 0.00 | 74 | 1010.1 |
| 20260906073037 | 81 | 191 | 0.0 | 0.0 | 0.00 | 0.00 | 0.00 | 73 | 1010.1 |
| 20260906072511 | 81 | 191 | 0.0 | 0.0 | 0.00 | 0.00 | 0.00 | 73 | 1010.1 |
| 20260906072040 | 81 | 191 | 0.0 | 0.0 | 0.00 | 0.00 | 0.00 | 72 | 1010.1 |
| 20260906071525 | 81 | 191 | 0.0 | 0.0 | 0.00 | 0.00 | 0.00 | 72 | 1010.2 |
| 20260906071057 | 81 | 191 | 0.0 | 0.0 | 0.00 | 0.00 | 0.00 | 72 | 1010.2 |
| 20260906070536 | 81 | 191 | 0.0 | 0.0 | 0.00 | 0.00 | 0.00 | 71 | 1010.2 |
| 20260906070017 | 81 | 191 | 0.0 | 0.0 | 0.00 | 0.00 | 0.00 | 70 | 1010.2 |
| 20260906065553 | 81 | 191 | 0.0 | 0.0 | 0.00 | 0.00 | 0.00 | 70 | 1010.3 |
| 20260906065014 | 82 | 191 | 0.0 | 0.0 | 0.00 | 0.00 | 0.00 | 71 | 1010.3 |
| 20260906064539 | 82 | 191 | 0.0 | 0.0 | 0.00 | 0.00 | 0.00 | 70 | 1010.3 |
| 20260906064015 | 82 | 191 | 0.0 | 0.0 | 0.00 | 0.00 | 0.00 | 71 | 1010.3 |
| 20260906063537 | 82 | 191 | 0.0 | 0.0 | 0.00 | 0.00 | 0.00 | 71 | 1010.2 |
| 20260906063057 | 82 | 191 | 0.0 | 0.0 | 0.00 | 0.00 | 0.00 | 72 | 1010.3 |
| 20260906062537 | 82 | 191 | 0.0 | 0.0 | 0.00 | 0.00 | 0.00 | 71 | 1010.2 |
| 20260906062056 | 82 | 191 | 0.0 | 0.0 | 0.00 | 0.00 | 0.00 | 70 | 1010.2 |
| 20260906061530 | 82 | 191 | 0.0 | 0.0 | 0.00 | 0.00 | 0.00 | 70 | 1010.2 |
| 20260906061009 | 82 | 191 | 0.0 | 0.0 | 0.00 | 0.00 | 0.00 | 70 | 1010.3 |
| 20260906060541 | 82 | 191 | 0.0 | 0.0 | 0.00 | 0.00 | 0.00 | 70 | 1010.4 |
| 20260906060016 | 83 | 191 | 0.0 | 0.9 | 0.00 | 0.00 | 0.00 | 70 | 1010.4 |
| 20260906055537 | 83 | 191 | 0.0 | 1.7 | 0.00 | 0.00 | 0.00 | 69 | 1010.5 |
| 20260906055053 | 83 | 191 | 0.9 | 1.7 | 0.00 | 0.00 | 0.00 | 69 | 1010.5 |
| 20260906054535 | 83 | 191 | 0.0 | 1.7 | 0.00 | 0.00 | 0.00 | 68 | 1010.5 |
| 20260906054011 | 83 | 191 | 0.0 | 1.7 | 0.00 | 0.00 | 0.00 | 68 | 1010.5 |
| 20260906053544 | 83 | 191 | 0.0 | 1.7 | 0.00 | 0.00 | 0.00 | 67 | 1010.6 |
| 20260906053025 | 83 | 193 | 0.0 | 0.0 | 0.00 | 0.00 | 0.00 | 65 | 1010.4 |
| 20260906052555 | 83 | 193 | 0.0 | 0.0 | 0.00 | 0.00 | 0.00 | 65 | 1010.3 |
| 20260906052037 | 83 | 193 | 0.0 | 0.0 | 0.00 | 0.00 | 0.00 | 65 | 1010.3 |
| 20260906051551 | 84 | 193 | 0.0 | 0.0 | 0.00 | 0.00 | 0.00 | 65 | 1010.3 |
| 20260906051015 | 84 | 193 | 0.0 | 0.0 | 0.00 | 0.00 | 0.00 | 64 | 1010.2 |
| 20260906050550 | 84 | 193 | 0.0 | 0.0 | 0.00 | 0.00 | 0.00 | 63 | 1010.2 |
| 20260906050023 | 84 | 193 | 0.0 | 0.0 | 0.00 | 0.00 | 0.00 | 62 | 1010.1 |
| 20260906045535 | 84 | 193 | 0.0 | 0.0 | 0.00 | 0.00 | 0.00 | 61 | 1010.0 |
| 20260906045011 | 85 | 193 | 0.0 | 0.0 | 0.00 | 0.00 | 0.00 | 62 | 1010.0 |
| 20260906044549 | 85 | 193 | 0.0 | 0.0 | 0.00 | 0.00 | 0.00 | 61 | 1010.1 |
| 20260906044007 | 85 | 193 | 0.0 | 0.0 | 0.00 | 0.00 | 0.00 | 61 | 1010.1 |
| 20260906043527 | 85 | 193 | 0.0 | 0.0 | 0.00 | 0.00 | 0.00 | 61 | 1010.1 |
| 20260906043005 | 85 | 193 | 0.0 | 0.0 | 0.00 | 0.00 | 0.00 | 62 | 1010.1 |
| 20260906042530 | 85 | 193 | 0.0 | 0.0 | 0.00 | 0.00 | 0.00 | 60 | 1010.1 |
| 20260906042046 | 85 | 193 | 0.0 | 0.0 | 0.00 | 0.00 | 0.00 | 60 | 1010.1 |
| 20260906041524 | 85 | 193 | 0.0 | 0.0 | 0.00 | 0.00 | 0.00 | 60 | 1010.0 |
| 20260906041050 | 86 | 193 | 0.0 | 0.0 | 0.00 | 0.00 | 0.00 | 60 | 1010.1 |
| 20260906040529 | 86 | 193 | 0.0 | 0.0 | 0.00 | 0.00 | 0.00 | 60 | 1010.1 |
| 20260906040011 | 86 | 193 | 0.0 | 0.0 | 0.00 | 0.00 | 0.00 | 60 | 1010.1 |
| 20260906035548 | 86 | 193 | 0.0 | 0.0 | 0.00 | 0.00 | 0.00 | 61 | 1010.1 |
| 20260906035025 | 86 | 193 | 0.0 | 0.0 | 0.00 | 0.00 | 0.00 | 61 | 1010.1 |
| 20260906034511 | 87 | 193 | 0.0 | 0.0 | 0.00 | 0.00 | 0.00 | 60 | 1010.1 |
| 20260906034047 | 87 | 193 | 0.0 | 0.0 | 0.00 | 0.00 | 0.00 | 60 | 1010.1 |
| 20260906033511 | 87 | 193 | 0.0 | 0.0 | 0.00 | 0.00 | 0.00 | 59 | 1010.2 |
| 20260906033052 | 87 | 193 | 0.0 | 0.0 | 0.00 | 0.00 | 0.00 | 58 | 1010.2 |
| 20260906032519 | 87 | 193 | 0.0 | 0.0 | 0.00 | 0.00 | 0.00 | 57 | 1010.0 |
| 20260906032051 | 87 | 193 | 0.0 | 0.0 | 0.00 | 0.00 | 0.00 | 57 | 1010.0 |
| 20260906031536 | 88 | 193 | 0.0 | 0.0 | 0.00 | 0.00 | 0.00 | 57 | 1010.0 |
| 20260906031051 | 88 | 193 | 0.0 | 0.0 | 0.00 | 0.00 | 0.00 | 56 | 1010.0 |
| 20260906030516 | 88 | 193 | 0.0 | 0.0 | 0.00 | 0.00 | 0.00 | 53 | 1009.9 |
| 20260906030046 | 88 | 193 | 0.0 | 0.0 | 0.00 | 0.00 | 0.00 | 52 | 1009.9 |
| 20260906025524 | 88 | 193 | 0.0 | 0.0 | 0.00 | 0.00 | 0.00 | 51 | 1009.8 |
| 20260906025057 | 89 | 193 | 0.0 | 0.0 | 0.00 | 0.00 | 0.00 | 51 | 1009.9 |
| 20260906025005 | 89 | 193 | 0.0 | 0.0 | 0.00 | 0.00 | 0.00 | 51 | 1009.9 |
| 20260906024543 | 89 | 193 | 0.0 | 0.0 | 0.00 | 0.00 | 0.00 | 51 | 1009.8 |
| 20260906024057 | 89 | 193 | 0.0 | 0.0 | 0.00 | 0.00 | 0.00 | 50 | 1009.8 |
| 20260906023533 | 89 | 193 | 0.0 | 0.0 | 0.00 | 0.00 | 0.00 | 49 | 1009.8 |
| 20260906023018 | 90 | 193 | 0.0 | 0.0 | 0.00 | 0.00 | 0.00 | 49 | 1009.6 |
| 20260906022545 | 90 | 193 | 0.0 | 0.0 | 0.00 | 0.00 | 0.00 | 49 | 1009.6 |
| 20260906022057 | 90 | 193 | 0.0 | 0.0 | 0.00 | 0.00 | 0.00 | 48 | 1009.5 |
| 20260906022004 | 90 | 193 | 0.0 | 0.0 | 0.00 | 0.00 | 0.00 | 48 | 1009.5 |
| 20260906021548 | 90 | 193 | 0.0 | 0.0 | 0.00 | 0.00 | 0.00 | 47 | 1009.4 |
| 20260906021005 | 91 | 193 | 0.0 | 0.0 | 0.00 | 0.00 | 0.00 | 48 | 1009.3 |
| 20260906020527 | 91 | 193 | 0.0 | 0.0 | 0.00 | 0.00 | 0.00 | 48 | 1009.2 |
| 20260906020100 | 91 | 193 | 0.0 | 0.0 | 0.00 | 0.00 | 0.00 | 46 | 1009.2 |
| 20260906020005 | 91 | 193 | 0.0 | 0.0 | 0.00 | 0.00 | 0.00 | 46 | 1009.1 |
| 20260906015541 | 92 | 193 | 0.0 | 0.0 | 0.00 | 0.00 | 0.00 | 46 | 1009.1 |
| 20260906015059 | 92 | 193 | 0.0 | 0.0 | 0.00 | 0.00 | 0.00 | 46 | 1009.1 |
| 20260906015001 | 92 | 193 | 0.0 | 0.0 | 0.00 | 0.00 | 0.00 | 46 | 1009.1 |
| 20260906014542 | 92 | 193 | 0.0 | 0.0 | 0.00 | 0.00 | 0.00 | 46 | 1009.1 |
| 20260906014044 | 92 | 193 | 0.0 | 0.0 | 0.00 | 0.00 | 0.00 | 46 | 1009.0 |
| 20260906013532 | 92 | 193 | 0.0 | 0.0 | 0.00 | 0.00 | 0.00 | 46 | 1009.0 |
| 20260906013049 | 93 | 193 | 0.0 | 0.0 | 0.00 | 0.00 | 0.00 | 45 | 1008.9 |
| 20260906012529 | 93 | 193 | 0.0 | 0.0 | 0.00 | 0.00 | 0.00 | 45 | 1008.9 |
| 20260906012003 | 93 | 193 | 0.0 | 0.9 | 0.00 | 0.00 | 0.00 | 45 | 1008.9 |
| 20260906011539 | 93 | 193 | 0.0 | 0.9 | 0.00 | 0.00 | 0.00 | 44 | 1008.9 |
| 20260906011025 | 93 | 193 | 0.0 | 0.9 | 0.00 | 0.00 | 0.00 | 44 | 1008.9 |
| 20260906010553 | 94 | 193 | 0.0 | 0.9 | 0.00 | 0.00 | 0.00 | 44 | 1008.8 |
| 20260906010033 | 94 | 193 | 0.0 | 0.9 | 0.00 | 0.00 | 0.00 | 43 | 1008.8 |
| 20260906005513 | 95 | 193 | 0.0 | 1.7 | 0.00 | 0.00 | 0.00 | 43 | 1008.8 |
| 20260906005039 | 96 | 193 | 0.0 | 1.7 | 0.00 | 0.00 | 0.00 | 41 | 1008.7 |
| 20260906004553 | 96 | 193 | 0.0 | 1.7 | 0.00 | 0.00 | 0.00 | 40 | 1008.7 |
| 20260906004033 | 97 | 193 | 0.0 | 1.7 | 0.00 | 0.00 | 0.00 | 39 | 1008.8 |
| 20260906003551 | 98 | 193 | 0.0 | 0.9 | 0.00 | 0.00 | 0.00 | 38 | 1008.8 |
| 20260906003013 | 100 | 193 | 0.0 | 1.7 | 0.00 | 0.00 | 0.00 | 37 | 1008.8 |
| 20260906002536 | 100 | 193 | 0.0 | 1.7 | 0.00 | 0.00 | 0.00 | 36 | 1008.8 |
| 20260906002019 | 101 | 193 | 0.0 | 1.7 | 0.00 | 0.00 | 0.00 | 35 | 1008.8 |
| 20260906001543 | 101 | 193 | 0.0 | 1.7 | 0.00 | 0.00 | 0.00 | 35 | 1008.8 |
| 20260906001009 | 101 | 193 | 0.0 | 0.0 | 0.00 | 0.00 | 0.00 | 34 | 1008.8 |
| 20260906000541 | 101 | 193 | 0.0 | 1.7 | 0.00 | 0.00 | 0.00 | 35 | 1008.7 |
| 20260906000005 | 101 | 193 | 0.0 | 1.7 | 0.00 | 0.00 | 0.00 | 34 | 1008.7 |
| 20260905235529 | 101 | 193 | 0.0 | 1.7 | 0.00 | 0.00 | 0.00 | 35 | 1008.6 |
| 20260905235051 | 101 | 193 | 0.0 | 1.7 | 0.00 | 0.00 | 0.00 | 34 | 1008.7 |
| 20260905234533 | 101 | 193 | 0.0 | 4.3 | 0.00 | 0.00 | 0.00 | 35 | 1008.7 |
| 20260905234056 | 101 | 193 | 0.9 | 4.3 | 0.00 | 0.00 | 0.00 | 35 | 1008.6 |
| 20260905233513 | 101 | 193 | 0.9 | 3.5 | 0.00 | 0.00 | 0.00 | 34 | 1008.6 |
| 20260905233041 | 101 | 193 | 0.0 | 3.5 | 0.00 | 0.00 | 0.00 | 36 | 1008.6 |
| 20260905232521 | 101 | 193 | 0.9 | 4.3 | 0.00 | 0.00 | 0.00 | 35 | 1008.6 |
| 20260905232039 | 101 | 193 | 1.7 | 4.3 | 0.00 | 0.00 | 0.00 | 34 | 1008.5 |
| 20260905231559 | 101 | 193 | 0.9 | 5.2 | 0.00 | 0.00 | 0.00 | 35 | 1008.5 |
| 20260905231502 | 101 | 193 | 1.7 | 5.2 | 0.00 | 0.00 | 0.00 | 35 | 1008.6 |
| 20260905231042 | 101 | 191 | 2.6 | 6.1 | 0.00 | 0.00 | 0.00 | 34 | 1008.6 |
| 20260905230503 | 102 | 194 | 1.7 | 6.1 | 0.00 | 0.00 | 0.00 | 34 | 1008.5 |
| 20260905230025 | 102 | 149 | 0.9 | 4.3 | 0.00 | 0.00 | 0.00 | 33 | 1008.5 |
| 20260905225505 | 102 | 146 | 0.9 | 4.3 | 0.00 | 0.00 | 0.00 | 34 | 1008.6 |
| 20260905225029 | 102 | 158 | 0.9 | 4.3 | 0.00 | 0.00 | 0.00 | 35 | 1008.7 |
| 20260905224549 | 102 | 229 | 2.6 | 4.3 | 0.00 | 0.00 | 0.00 | 34 | 1008.6 |
| 20260905224013 | 102 | 97 | 0.9 | 4.3 | 0.00 | 0.00 | 0.00 | 33 | 1008.5 |
| 20260905223549 | 102 | 142 | 0.0 | 5.2 | 0.00 | 0.00 | 0.00 | 34 | 1008.6 |
| 20260905223013 | 102 | 207 | 0.9 | 5.2 | 0.00 | 0.00 | 0.00 | 34 | 1008.6 |
| 20260905222549 | 102 | 227 | 0.9 | 4.3 | 0.00 | 0.00 | 0.00 | 33 | 1008.7 |
| 20260905222009 | 102 | 91 | 0.0 | 7.0 | 0.00 | 0.00 | 0.00 | 33 | 1008.6 |
| 20260905221534 | 102 | 173 | 0.0 | 7.0 | 0.00 | 0.00 | 0.00 | 34 | 1008.7 |
| 20260905221052 | 102 | 178 | 1.7 | 7.8 | 0.00 | 0.00 | 0.00 | 34 | 1008.7 |
| 20260905220532 | 103 | 196 | 3.5 | 7.8 | 0.00 | 0.00 | 0.00 | 34 | 1008.8 |
| 20260905220049 | 102 | 192 | 0.9 | 4.3 | 0.00 | 0.00 | 0.00 | 35 | 1008.8 |
| 20260905215513 | 102 | 177 | 0.0 | 4.3 | 0.00 | 0.00 | 0.00 | 35 | 1008.9 |
| 20260905215049 | 102 | 138 | 1.7 | 5.2 | 0.00 | 0.00 | 0.00 | 35 | 1008.9 |
| 20260905214506 | 102 | 51 | 0.9 | 5.2 | 0.00 | 0.00 | 0.00 | 35 | 1008.9 |
| 20260905214028 | 102 | 140 | 0.0 | 4.3 | 0.00 | 0.00 | 0.00 | 34 | 1009.0 |
| 20260905213512 | 102 | 140 | 0.0 | 6.1 | 0.00 | 0.00 | 0.00 | 35 | 1009.0 |
| 20260905213029 | 102 | 55 | 1.7 | 6.1 | 0.00 | 0.00 | 0.00 | 35 | 1009.0 |
| 20260905212547 | 102 | 233 | 0.0 | 4.3 | 0.00 | 0.00 | 0.00 | 35 | 1009.0 |
| 20260905212031 | 101 | 189 | 0.9 | 7.8 | 0.00 | 0.00 | 0.00 | 35 | 1009.2 |
| 20260905211554 | 102 | 186 | 2.6 | 7.8 | 0.00 | 0.00 | 0.00 | 34 | 1009.2 |
| 20260905211011 | 102 | 176 | 0.9 | 7.0 | 0.00 | 0.00 | 0.00 | 34 | 1009.4 |
| 20260905210549 | 102 | 196 | 2.6 | 6.1 | 0.00 | 0.00 | 0.00 | 34 | 1009.4 |
| 20260905210014 | 101 | 137 | 0.0 | 5.2 | 0.00 | 0.00 | 0.00 | 36 | 1009.5 |
| 20260905205551 | 101 | 114 | 0.9 | 6.1 | 0.00 | 0.00 | 0.00 | 36 | 1009.5 |
| 20260905205009 | 101 | 206 | 1.7 | 6.1 | 0.00 | 0.00 | 0.00 | 37 | 1009.7 |
| 20260905204529 | 101 | 145 | 1.7 | 7.8 | 0.00 | 0.00 | 0.00 | 37 | 1009.8 |
| 20260905204004 | 101 | 89 | 4.3 | 7.8 | 0.00 | 0.00 | 0.00 | 36 | 1009.9 |
| 20260905203523 | 100 | 143 | 2.6 | 6.1 | 0.00 | 0.00 | 0.00 | 37 | 1009.9 |
| 20260905203052 | 100 | 255 | 1.7 | 7.8 | 0.00 | 0.00 | 0.00 | 38 | 1010.0 |
| 20260905202518 | 100 | 203 | 4.3 | 7.8 | 0.00 | 0.00 | 0.00 | 37 | 1010.1 |
| 20260905202042 | 100 | 188 | 2.6 | 7.0 | 0.00 | 0.00 | 0.00 | 37 | 1010.1 |
| 20260905201503 | 100 | 126 | 1.7 | 3.5 | 0.00 | 0.00 | 0.00 | 37 | 1010.2 |
| 20260905201024 | 100 | 140 | 0.9 | 7.8 | 0.00 | 0.00 | 0.00 | 36 | 1010.4 |
| 20260905200601 | 100 | 108 | 3.5 | 7.8 | 0.00 | 0.00 | 0.00 | 37 | 1010.4 |
| 20260905200503 | 100 | 78 | 4.3 | 7.8 | 0.00 | 0.00 | 0.00 | 38 | 1010.5 |
| 20260905200025 | 100 | 123 | 0.9 | 6.1 | 0.00 | 0.00 | 0.00 | 37 | 1010.6 |
| 20260905195601 | 100 | 58 | 2.6 | 6.1 | 0.00 | 0.00 | 0.00 | 38 | 1010.7 |
| 20260905195503 | 99 | 57 | 0.9 | 7.0 | 0.00 | 0.00 | 0.00 | 38 | 1010.7 |
| 20260905195026 | 99 | 177 | 0.0 | 9.6 | 0.00 | 0.00 | 0.00 | 39 | 1010.8 |
| 20260905194540 | 99 | 202 | 6.1 | 9.6 | 0.00 | 0.00 | 0.00 | 39 | 1010.8 |
| 20260905194019 | 99 | 196 | 4.3 | 8.7 | 0.00 | 0.00 | 0.00 | 39 | 1010.8 |
| 20260905193538 | 99 | 198 | 3.5 | 7.8 | 0.00 | 0.00 | 0.00 | 39 | 1010.9 |
| 20260905193017 | 99 | 152 | 3.5 | 7.8 | 0.00 | 0.00 | 0.00 | 39 | 1010.9 |
| 20260905192538 | 99 | 54 | 0.0 | 4.3 | 0.00 | 0.00 | 0.00 | 39 | 1010.9 |